Location: Holcomb Observatory
(44.4922°N, 73.1654°W)
Time: 17:05:56
(UTC-04:00)

Cosmos 2360 Rocket - Visible Passes

Search period start: 29 May 2016 00:00
Search period end: 08 June 2016 00:00
Orbit: 836 x 844 km, 71.0° (Epoch: 29 May)

Date Brightness Start Highest point End Pass type
(mag) Time Alt. Az. Time Alt. Az. Time Alt. Az.
29 May 4.9 01:36:58 10° N 01:40:07 15° NE 01:43:15 10° ENE visible
29 May 2.4 03:19:30 10° NNW 03:25:09 74° ENE 03:30:47 10° SSE visible
30 May 4.9 01:21:26 10° N 01:24:23 14° NE 01:27:20 10° ENE visible
30 May 2.5 03:03:51 10° NNW 03:09:29 69° ENE 03:15:06 10° SSE visible
31 May 4.9 01:05:54 10° N 01:08:39 14° NE 01:11:25 10° ENE visible
31 May 2.6 02:48:12 10° NNW 02:53:49 65° ENE 02:59:25 10° SE visible
31 May 3.5 04:33:23 10° NW 04:37:15 19° W 04:41:06 10° SW visible
01 Jun 4.9 00:50:24 10° NNE 00:52:56 13° NE 00:55:27 10° ENE visible
01 Jun 2.6 02:32:33 10° NNW 02:38:09 62° ENE 02:43:43 10° SE visible
01 Jun 3.5 04:17:35 10° NW 04:21:37 21° W 04:25:40 10° SSW visible
02 Jun 4.9 00:34:55 10° NNE 00:37:12 12° NE 00:39:28 10° ENE visible
02 Jun 2.7 02:16:54 10° NNW 02:22:29 58° ENE 02:28:01 10° SE visible
02 Jun 3.4 04:01:49 10° NW 04:06:00 22° W 04:10:03 11° SSW visible
03 Jun 4.9 00:19:28 10° NNE 00:21:28 12° NE 00:23:26 10° ENE visible
03 Jun 2.8 02:01:15 10° NNW 02:06:48 55° ENE 02:11:52 12° SE visible
03 Jun 3.4 03:46:02 10° NW 03:50:23 23° WSW 03:53:34 15° SW visible
04 Jun 4.9 00:04:04 10° NNE 00:05:43 11° NE 00:07:22 10° NE visible
04 Jun 2.9 01:45:37 10° NNW 01:51:07 52° ENE 01:55:35 16° SE visible
04 Jun 3.3 03:30:17 10° NW 03:34:45 25° WSW 03:37:17 18° SW visible
04 Jun 4.9 23:48:46 10° NNE 23:49:59 11° NE 23:51:11 10° NE visible
05 Jun 3.0 01:29:58 10° NNW 01:35:28 49° ENE 01:39:26 18° SE visible
05 Jun 3.2 03:14:32 10° NW 03:19:08 26° WSW 03:21:09 21° SW visible
05 Jun 5.0 23:33:45 10° NNE 23:34:15 10° NE 23:34:44 10° NE visible
06 Jun 3.0 01:14:20 10° NNW 01:19:46 46° ENE 01:23:25 20° ESE visible
06 Jun 3.2 02:58:47 10° NW 03:03:31 28° WSW 03:05:08 24° SW visible
07 Jun 3.1 00:58:43 10° NNW 01:04:05 44° ENE 01:07:31 21° ESE visible
07 Jun 3.1 02:43:04 10° NW 02:47:54 30° WSW 02:49:14 27° SW visible
